| time (UTC) | temp F | wind direction | speed MPH | gust MPH | rain 1hr in | rain 24hr in | rain mn in | humidity % | barometer mb |
| 20260902201630 | 82 | 218 | 6.0 | 0.0 | 0.00 | 0.00 | 0.00 | 25 | 1003.3 |
| 20260902200050 | 81 | 207 | 9.0 | 0.0 | 0.00 | 0.00 | 0.00 | 25 | 1003.4 |
| 20260902194636 | 81 | 192 | 8.0 | 0.0 | 0.00 | 0.00 | 0.00 | 26 | 1003.6 |
| 20260902193116 | 81 | 167 | 7.0 | 0.0 | 0.00 | 0.00 | 0.00 | 26 | 1003.7 |
| 20260902191505 | 80 | 201 | 8.0 | 0.0 | 0.00 | 0.00 | 0.00 | 27 | 1003.8 |
| 20260902190121 | 80 | 185 | 7.0 | 0.0 | 0.00 | 0.00 | 0.00 | 31 | 1004.0 |
| 20260902184555 | 79 | 206 | 10.0 | 0.0 | 0.00 | 0.00 | 0.00 | 31 | 1003.9 |
| 20260902183007 | 79 | 190 | 6.0 | 0.0 | 0.00 | 0.00 | 0.00 | 32 | 1004.2 |
| 20260902181618 | 78 | 187 | 6.0 | 0.0 | 0.00 | 0.00 | 0.00 | 34 | 1004.6 |
| 20260902180054 | 77 | 78 | 6.0 | 0.0 | 0.00 | 0.00 | 0.00 | 35 | 1004.8 |
| 20260902174632 | 77 | 186 | 6.0 | 0.0 | 0.00 | 0.00 | 0.00 | 35 | 1005.0 |
| 20260902173112 | 76 | 169 | 6.0 | 0.0 | 0.00 | 0.00 | 0.00 | 39 | 1005.2 |
| 20260902171512 | 76 | 196 | 6.0 | 0.0 | 0.00 | 0.00 | 0.00 | 39 | 1005.5 |
| 20260902170130 | 76 | 213 | 6.0 | 0.0 | 0.00 | 0.00 | 0.00 | 39 | 1005.5 |
| 20260902164601 | 74 | 194 | 6.0 | 0.0 | 0.00 | 0.00 | 0.00 | 39 | 1005.6 |
| 20260902163001 | 75 | 195 | 6.0 | 0.0 | 0.00 | 0.00 | 0.00 | 38 | 1005.6 |
| 20260902161632 | 75 | 223 | 7.0 | 0.0 | 0.00 | 0.00 | 0.00 | 37 | 1005.6 |
| 20260902160049 | 75 | 160 | 6.0 | 0.0 | 0.00 | 0.00 | 0.00 | 37 | 1005.7 |
| 20260902154636 | 74 | 190 | 4.0 | 0.0 | 0.00 | 0.00 | 0.00 | 38 | 1005.7 |
| 20260902153122 | 74 | 167 | 7.0 | 0.0 | 0.00 | 0.00 | 0.00 | 37 | 1005.7 |
| 20260902151611 | 74 | 223 | 6.0 | 0.0 | 0.00 | 0.00 | 0.00 | 38 | 1005.9 |
| 20260902150047 | 73 | 218 | 5.0 | 0.0 | 0.00 | 0.00 | 0.00 | 39 | 1005.5 |
| 20260902144513 | 72 | 165 | 7.0 | 0.0 | 0.00 | 0.00 | 0.00 | 38 | 1005.4 |
| 20260902143126 | 72 | 195 | 4.0 | 0.0 | 0.00 | 0.00 | 0.00 | 40 | 1005.3 |
| 20260902141555 | 72 | 196 | 5.0 | 0.0 | 0.00 | 0.00 | 0.00 | 40 | 1005.2 |
| 20260902140030 | 72 | 213 | 4.0 | 0.0 | 0.00 | 0.00 | 0.00 | 39 | 1005.2 |
| 20260902134620 | 72 | 187 | 5.0 | 0.0 | 0.00 | 0.00 | 0.00 | 39 | 1005.2 |
| 20260902133022 | 72 | 209 | 5.0 | 0.0 | 0.00 | 0.00 | 0.00 | 38 | 1005.4 |
| 20260902131632 | 72 | 179 | 6.0 | 0.0 | 0.00 | 0.00 | 0.00 | 38 | 1005.2 |
| 20260902130041 | 71 | 213 | 4.0 | 0.0 | 0.00 | 0.00 | 0.00 | 42 | 1005.2 |
| 20260902124526 | 65 | 208 | 2.0 | 0.0 | 0.00 | 0.00 | 0.00 | 52 | 1005.2 |
| 20260902123122 | 64 | 10 | 1.0 | 0.0 | 0.00 | 0.00 | 0.00 | 59 | 1005.3 |
| 20260902121614 | 64 | 10 | 1.0 | 0.0 | 0.00 | 0.00 | 0.00 | 60 | 1005.1 |
| 20260902120025 | 64 | 10 | 1.0 | 0.0 | 0.00 | 0.00 | 0.00 | 59 | 1005.3 |
| 20260902114508 | 65 | 10 | 1.0 | 0.0 | 0.00 | 0.00 | 0.00 | 57 | 1005.2 |
| 20260902113119 | 65 | 10 | 0.0 | 0.0 | 0.00 | 0.00 | 0.00 | 57 | 1005.2 |
| 20260902111526 | 65 | 10 | 1.0 | 0.0 | 0.00 | 0.00 | 0.00 | 56 | 1005.2 |
| 20260902110005 | 66 | 176 | 0.0 | 0.0 | 0.00 | 0.00 | 0.00 | 53 | 1005.3 |
| 20260902104620 | 68 | 177 | 0.0 | 0.0 | 0.00 | 0.00 | 0.00 | 50 | 1005.5 |
| 20260902103140 | 71 | 178 | 1.0 | 0.0 | 0.00 | 0.00 | 0.00 | 43 | 1005.5 |
| 20260902101601 | 74 | 214 | 5.0 | 0.0 | 0.00 | 0.00 | 0.00 | 33 | 1005.6 |
| 20260902100025 | 74 | 198 | 3.0 | 0.0 | 0.00 | 0.00 | 0.00 | 33 | 1005.6 |
| 20260902094626 | 74 | 209 | 4.0 | 0.0 | 0.00 | 0.00 | 0.00 | 33 | 1005.7 |
| 20260902093121 | 74 | 201 | 4.0 | 0.0 | 0.00 | 0.00 | 0.00 | 32 | 1005.8 |
| 20260902091504 | 75 | 43 | 6.0 | 0.0 | 0.00 | 0.00 | 0.00 | 33 | 1005.9 |
| 20260902090131 | 75 | 167 | 6.0 | 0.0 | 0.00 | 0.00 | 0.00 | 33 | 1006.0 |
| 20260902084607 | 74 | 200 | 5.0 | 0.0 | 0.00 | 0.00 | 0.00 | 34 | 1006.0 |
| 20260902083025 | 74 | 190 | 6.0 | 0.0 | 0.00 | 0.00 | 0.00 | 34 | 1006.1 |
| 20260902081633 | 74 | 153 | 4.0 | 0.0 | 0.00 | 0.00 | 0.00 | 35 | 1006.2 |
| 20260902080134 | 74 | 205 | 5.0 | 0.0 | 0.00 | 0.00 | 0.00 | 35 | 1006.3 |
| 20260902074627 | 75 | 207 | 5.0 | 0.0 | 0.00 | 0.00 | 0.00 | 35 | 1006.3 |
| 20260902073043 | 74 | 190 | 4.0 | 0.0 | 0.00 | 0.00 | 0.00 | 36 | 1006.1 |
| 20260902071517 | 74 | 201 | 4.0 | 0.0 | 0.00 | 0.00 | 0.00 | 36 | 1006.0 |
| 20260902070003 | 73 | 205 | 4.0 | 0.0 | 0.00 | 0.00 | 0.00 | 39 | 1006.1 |
| 20260902064622 | 70 | 211 | 0.0 | 0.0 | 0.00 | 0.00 | 0.00 | 45 | 1006.0 |
| 20260902063036 | 71 | 196 | 0.0 | 0.0 | 0.00 | 0.00 | 0.00 | 44 | 1006.0 |
| 20260902061508 | 72 | 194 | 0.0 | 0.0 | 0.00 | 0.00 | 0.00 | 43 | 1006.0 |
| 20260902060126 | 73 | 194 | 0.0 | 0.0 | 0.00 | 0.00 | 0.00 | 40 | 1006.1 |
| 20260902054603 | 74 | 194 | 0.0 | 0.0 | 0.00 | 0.00 | 0.00 | 38 | 1006.2 |
| 20260902053024 | 75 | 195 | 2.0 | 0.0 | 0.00 | 0.00 | 0.00 | 37 | 1006.3 |
| 20260902051503 | 76 | 223 | 3.0 | 0.0 | 0.00 | 0.00 | 0.00 | 36 | 1006.4 |
| 20260902050106 | 77 | 190 | 4.0 | 0.0 | 0.00 | 0.00 | 0.00 | 35 | 1006.5 |
| 20260902044522 | 77 | 211 | 4.0 | 0.0 | 0.00 | 0.00 | 0.00 | 37 | 1006.5 |
| 20260902043129 | 77 | 207 | 5.0 | 0.0 | 0.00 | 0.00 | 0.00 | 36 | 1006.5 |
| 20260902041511 | 77 | 202 | 4.0 | 0.0 | 0.00 | 0.00 | 0.00 | 35 | 1006.4 |
| 20260902040115 | 77 | 188 | 3.0 | 0.0 | 0.00 | 0.00 | 0.00 | 35 | 1006.2 |
| 20260902034521 | 77 | 200 | 4.0 | 0.0 | 0.00 | 0.00 | 0.00 | 35 | 1006.2 |
| 20260902033118 | 77 | 202 | 3.0 | 0.0 | 0.00 | 0.00 | 0.00 | 35 | 1006.3 |
| 20260902031510 | 77 | 198 | 3.0 | 0.0 | 0.00 | 0.00 | 0.00 | 36 | 1006.0 |
| 20260902030134 | 77 | 207 | 4.0 | 0.0 | 0.00 | 0.00 | 0.00 | 36 | 1005.9 |
| 20260902024618 | 77 | 227 | 4.0 | 0.0 | 0.00 | 0.00 | 0.00 | 36 | 1005.9 |
| 20260902023028 | 77 | 211 | 4.0 | 0.0 | 0.00 | 0.00 | 0.00 | 37 | 1006.0 |
| 20260902021636 | 77 | 158 | 3.0 | 0.0 | 0.00 | 0.00 | 0.00 | 38 | 1005.9 |
| 20260902020131 | 77 | 205 | 3.0 | 0.0 | 0.00 | 0.00 | 0.00 | 38 | 1005.8 |
| 20260902014610 | 78 | 222 | 5.0 | 0.0 | 0.00 | 0.00 | 0.00 | 37 | 1005.7 |
| 20260902013016 | 78 | 214 | 4.0 | 0.0 | 0.00 | 0.00 | 0.00 | 37 | 1006.1 |
| 20260902011501 | 79 | 193 | 4.0 | 0.0 | 0.00 | 0.00 | 0.00 | 37 | 1006.2 |
| 20260902010128 | 79 | 183 | 4.0 | 0.0 | 0.00 | 0.00 | 0.00 | 37 | 1006.4 |
| 20260902004601 | 79 | 182 | 3.0 | 0.0 | 0.00 | 0.00 | 0.00 | 38 | 1006.6 |
| 20260902003024 | 79 | 210 | 5.0 | 0.0 | 0.00 | 0.00 | 0.00 | 37 | 1006.6 |
| 20260902001635 | 80 | 211 | 4.0 | 0.0 | 0.00 | 0.00 | 0.00 | 38 | 1006.6 |
| 20260902000105 | 81 | 200 | 4.0 | 0.0 | 0.00 | 0.00 | 0.00 | 35 | 1006.7 |
| 20260901234519 | 81 | 217 | 4.0 | 0.0 | 0.00 | 0.00 | 0.00 | 35 | 1007.0 |
| 20260901233128 | 81 | 205 | 4.0 | 0.0 | 0.00 | 0.00 | 0.00 | 35 | 1007.0 |
| 20260901231551 | 82 | 61 | 4.0 | 0.0 | 0.00 | 0.00 | 0.00 | 35 | 1007.3 |
| 20260901230052 | 81 | 215 | 2.0 | 0.0 | 0.00 | 0.00 | 0.00 | 36 | 1007.6 |
| 20260901224634 | 79 | 195 | 4.0 | 0.0 | 0.00 | 0.00 | 0.00 | 38 | 1007.6 |
| 20260901223055 | 79 | 130 | 3.0 | 0.0 | 0.00 | 0.00 | 0.00 | 38 | 1007.9 |
| 20260901221511 | 80 | 206 | 4.0 | 0.0 | 0.00 | 0.00 | 0.00 | 37 | 1008.1 |
| 20260901220127 | 79 | 65 | 4.0 | 0.0 | 0.00 | 0.00 | 0.00 | 37 | 1008.4 |
| 20260901214552 | 79 | 212 | 8.0 | 0.0 | 0.00 | 0.00 | 0.00 | 35 | 1008.5 |
| 20260901213134 | 80 | 207 | 6.0 | 0.0 | 0.00 | 0.00 | 0.00 | 40 | 1008.5 |
| 20260901211604 | 79 | 180 | 5.0 | 0.0 | 0.00 | 0.00 | 0.00 | 39 | 1008.5 |
| 20260901210002 | 80 | 194 | 5.0 | 0.0 | 0.00 | 0.00 | 0.00 | 37 | 1008.8 |
| 20260901204629 | 79 | 205 | 5.0 | 0.0 | 0.00 | 0.00 | 0.00 | 39 | 1009.2 |
| 20260901203111 | 79 | 211 | 6.0 | 0.0 | 0.00 | 0.00 | 0.00 | 41 | 1009.5 |